[[{"header":{"parameterUnit":"m.s-1","parameterCategory":1,"la1":30.2991,"la2":30.254,"lo1":-89.0895,"lo2":-89.0444,"dy":0.0017,"dx":0.0017,"nx":28,"ny":28,"refTime":"2024-07-19T09:00:00:Z","depth":0,"parameterNumber":2,"parameterNumberName":"U-component_of_WINDS"},"data":[0,0,0,0,0,0,0,0,0,0,0,0,0,0,0,0,0,0,0,0,0,0,0,0,0,0,0,0,0,0,0,0,0,0,0,0,0,0,0,0,0,0,0,0,0,0,0,0,0,0,0,0,0,0,0,0,0,0,0.3425,0.3425,0,0.3372,0.3371,0.3371,0.3308,0.3307,0.3306,0.3305,0.3251,0.3251,0.325,0,0,0,0,0,0,0,0,0,0,0,0,0,0.3473,0.3473,0.3426,0.3425,0.3424,0.3372,0.3371,0.3371,0.3308,0.3307,0.3306,0.3305,0.3252,0.3251,0.325,0,0,0,0,0,0,0,0,0,0,0,0,0,0.344,0.3473,0.3426,0.3387,0.3383,0.3372,0.3371,0.337,0.3308,0.3307,0.3306,0.3304,0.3252,0.3251,0.325,0.3274,0,0,0.3248,0.3247,0,0,0,0,0,0,0,0,0.3442,0.3438,0.3393,0.3389,0.3385,0.3345,0.3368,0.3338,0.3309,0.3337,0.3305,0.3303,0.3284,0.328,0.3273,0.3272,0.3269,0.3248,0.3247,0.3247,0.3247,0,0,0,0,0,0,0,0.3444,0.344,0.3404,0.3393,0.3387,0.3372,0.3365,0.3362,0.3319,0.3334,0.3329,0.3324,0.3281,0.3274,0.3272,0.3268,0.3248,0.3247,0.3247,0.3246,0.3281,0.3282,0,0,0,0,0,0,0.3452,0.3442,0.3406,0.3403,0.341,0.3372,0.3365,0.3359,0.3319,0.3311,0.3325,0.3321,0.3277,0.3273,0.327,0.3293,0.3247,0.3246,0.3246,0.3279,0.3281,0.3283,0,0,0,0,0,0,0.3453,0.3449,0.3408,0.3421,0.3415,0.3373,0.3367,0.3359,0.3352,0.3312,0.3304,0.3326,0.3275,0.3271,0.3273,0.329,0.3246,0.3245,0.3278,0.328,0.3282,0.3341,0,0,0,0,0,0,0.3455,0.345,0.3459,0.3422,0.3414,0.3413,0.3368,0.3359,0.3351,0.3345,0.3311,0.3304,0.3274,0.3274,0.3272,0.3288,0.3244,0.3276,0.3279,0.3281,0.3337,0.3345,0.3351,0,0,0,0,0,0.3457,0.3479,0.346,0.3456,0.3424,0.3414,0.3409,0.3374,0.3352,0.3361,0.3335,0.3305,0.3289,0.3275,0.3272,0.3288,0.3275,0.3278,0.3281,0.3334,0.3343,0.3351,0,0,0,0,0,0,0.352,0.3473,0.3452,0.3462,0.3442,0.3403,0.3412,0.3385,0.3372,0.3367,0.3324,0.3317,0.3323,0.3306,0.3292,0.3308,0.3277,0.328,0.3319,0.3327,0.3334,0.3338,0.3244,0,0,0,0,0,0.3535,0.353,0.349,0.3503,0.3494,0.3455,0.3449,0.3423,0.3401,0.3393,0.3367,0.3347,0.3337,0.3331,0.332,0.3335,0.3325,0.3344,0.3351,0.3357,0.336,0.3364,0.3372,0.3293,0.3293,0.3293,0,0,0.3566,0.354,0.354,0.3514,0.3496,0.3492,0.3448,0.3446,0.3442,0.3392,0.3392,0.3373,0.3347,0.3355,0.3357,0.3341,0.338,0.3361,0.3366,0.3366,0.3368,0.3376,0.3382,0.3295,0.3295,0.3294,0,0,0.362,0.36,0.3608,0.359,0.3562,0.3536,0.3538,0.3503,0.3488,0.3486,0.3448,0.3443,0.3428,0.341,0.34,0.3445,0.3417,0.3443,0.348,0.3484,0.349,0.3496,0.351,0.3516,0.3446,0.3446,0.3446,0,0.3662,0.3654,0.3616,0.3615,0.3604,0.3558,0.3565,0.355,0.352,0.3514,0.3496,0.3474,0.3454,0.3456,0.3467,0.346,0.346,0.3447,0.3493,0.3498,0.3502,0.3515,0.3521,0.3449,0.3449,0.3449,0.3448,0,0.3706,0.3701,0.371,0.3682,0.3672,0.3676,0.3637,0.3633,0.3608,0.3583,0.3582,0.3556,0.3537,0.3536,0.3513,0.3534,0.3525,0.3501,0.3469,0.3513,0.3525,0.353,0.3454,0.3453,0.3452,0.3451,0,0,0.3798,0.3748,0.3752,0.3737,0.3703,0.3698,0.3699,0.368,0.3676,0.3657,0.3656,0.3643,0.3619,0.3607,0.3581,0.3585,0.3621,0.356,0.3558,0.3571,0.3641,0.3659,0.3665,0.3602,0.3603,0.3603,0.3643,0,0.3845,0.3843,0.3808,0.3815,0.3809,0.3765,0.3765,0.3744,0.3721,0.3712,0.3687,0.3678,0.3648,0.364,0.3643,0.3616,0.3634,0.3613,0.3599,0.3599,0.3606,0.3672,0.3691,0.3729,0.3647,0.3648,0.3649,0,0.3899,0.3882,0.3889,0.3852,0.3848,0.3849,0.3829,0.3821,0.3796,0.3778,0.3764,0.3734,0.3731,0.3702,0.3696,0.3683,0.3675,0.3661,0.3662,0.3658,0.3626,0.3669,0.3741,0.3746,0.3656,0.3655,0.3655,0,0.3963,0.3942,0.3943,0.3932,0.3891,0.3892,0.3875,0.3847,0.3838,0.382,0.3813,0.3796,0.3786,0.3773,0.3738,0.372,0.3736,0.3704,0.3721,0.3722,0.3725,0.3725,0.3796,0.3723,0.3723,0.3723,0.3723,0,0.4018,0.4024,0.3971,0.3972,0.3976,0.3936,0.3941,0.3919,0.3895,0.389,0.3852,0.3848,0.3803,0.3793,0.3766,0.3765,0.3762,0.3747,0.3739,0.3749,0.3751,0.3743,0.3739,0.3724,0.3724,0.3724,0.3723,0,0.409,0.4056,0.4053,0.4013,0.4003,0.4008,0.3974,0.3972,0.3947,0.3941,0.3937,0.3897,0.3883,0.3848,0.3826,0.3807,0.3813,0.38,0.3822,0.3817,0.3835,0.3833,0.3901,0.3908,0.3832,0.3833,0.3834,0,0.4127,0.413,0.409,0.4083,0.4067,0.4058,0.4048,0.4008,0.3999,0.3969,0.3971,0.3954,0.3939,0.392,0.3889,0.3871,0.3856,0.3882,0.3853,0.3863,0.3855,0.3854,0.3854,0.3887,0.3888,0.3889,0.389,0,0.4195,0.4177,0.4164,0.4144,0.4133,0.4116,0.4096,0.4093,0.4048,0.404,0.4026,0.4014,0.3991,0.3974,0.3952,0.3933,0.3904,0.3899,0.3902,0.3911,0.3923,0.3915,0.3837,0.3898,0.3897,0.3896,0.3896,0.3896,0.4249,0.4249,0.422,0.4206,0.4187,0.417,0.4166,0.4139,0.4127,0.4104,0.4081,0.4069,0.4042,0.4008,0.3992,0.3981,0.3966,0.397,0.3971,0.3972,0.3976,0.3926,0.3977,0.3977,0.3977,0.3976,0.3976,0,0.4313,0.4292,0.428,0.4254,0.4242,0.4216,0.4192,0.4185,0.4174,0.4152,0.4137,0.412,0.4103,0.407,0.4051,0.4049,0.4034,0.4045,0.4044,0.404,0.3992,0.3991,0.4056,0.4056,0.4056,0.4056,0.4056,0.4056,0.4345,0.4343,0.4322,0.4309,0.4288,0.4276,0.4265,0.4248,0.4229,0.4212,0.4198,0.4176,0.4149,0.4127,0.411,0.4101,0.4094,0.4109,0.4095,0.4051,0.4043,0.4036,0.4035,0.4108,0.4108,0.4143,0.4144,0.4144]},{"header":{"parameterUnit":"m.s-1","parameterCategory":1,"la1":30.2991,"la2":30.254,"lo1":-89.0895,"lo2":-89.0444,"dy":0.0017,"dx":0.0017,"nx":28,"ny":28,"refTime":"2024-07-19T09:00:00:Z","depth":0,"parameterNumber":3,"parameterNumberName":"V-component_of_WINDS"},"data":[0,0,0,0,0,0,0,0,0,0,0,0,0,0,0,0,0,0,0,0,0,0,0,0,0,0,0,0,0,0,0,0,0,0,0,0,0,0,0,0,0,0,0,0,0,0,0,0,0,0,0,0,0,0,0,0,0,0,5.1592,5.1593,0,5.1599,5.1599,5.1599,5.1505,5.1503,5.15,5.1498,5.1504,5.1507,5.1509,0,0,0,0,0,0,0,0,0,0,0,0,0,5.1495,5.1498,5.1592,5.1593,5.1593,5.1599,5.1599,5.1599,5.1506,5.1503,5.15,5.1497,5.1504,5.1507,5.151,0,0,0,0,0,0,0,0,0,0,0,0,0,5.1524,5.1499,5.1592,5.1547,5.1543,5.1599,5.1599,5.1599,5.1506,5.1503,5.1499,5.1495,5.1503,5.1506,5.151,5.1611,0,0,5.1522,5.1523,0,0,0,0,0,0,0,0,5.1522,5.1527,5.1553,5.155,5.1546,5.1547,5.1567,5.1603,5.1507,5.152,5.1498,5.1493,5.1522,5.1524,5.1534,5.1611,5.1611,5.1522,5.1524,5.1526,5.1527,0,0,0,0,0,0,0,5.152,5.1526,5.1595,5.1554,5.1549,5.1525,5.1525,5.1574,5.1542,5.1519,5.1512,5.1514,5.1519,5.153,5.1533,5.1611,5.1522,5.1525,5.1528,5.1529,5.1767,5.1771,0,0,0,0,0,0,5.1525,5.1525,5.1595,5.1595,5.1524,5.153,5.1529,5.1551,5.1542,5.1537,5.1517,5.151,5.1525,5.1529,5.1533,5.1646,5.1526,5.153,5.1532,5.1763,5.1768,5.1772,0,0,0,0,0,0,5.1523,5.1532,5.1595,5.1558,5.1565,5.1536,5.156,5.1553,5.1564,5.1541,5.1534,5.1535,5.1522,5.1527,5.1591,5.1645,5.1531,5.1535,5.1758,5.1764,5.177,5.1877,0,0,0,0,0,0,5.1521,5.1532,5.1571,5.156,5.1567,5.1654,5.1564,5.1556,5.1571,5.1561,5.1555,5.155,5.152,5.1586,5.1595,5.1649,5.1538,5.1753,5.1761,5.1768,5.1868,5.1885,5.19,0,0,0,0,0,5.1518,5.1601,5.1573,5.1582,5.1615,5.1657,5.1661,5.1624,5.1576,5.1613,5.1598,5.1551,5.1639,5.1593,5.1602,5.1658,5.1749,5.1759,5.1767,5.1861,5.1882,5.19,0,0,0,0,0,0,5.162,5.1599,5.1568,5.1651,5.1656,5.1641,5.1688,5.1649,5.1668,5.1658,5.1611,5.1611,5.1681,5.1676,5.1626,5.1753,5.1685,5.1697,5.1753,5.1773,5.1789,5.1787,5.1541,0,0,0,0,0,5.1652,5.1689,5.1668,5.1744,5.1748,5.1718,5.1735,5.1706,5.1709,5.1711,5.1701,5.1706,5.1734,5.1754,5.1779,5.1868,5.1863,5.191,5.1927,5.194,5.195,5.1992,5.2012,5.1802,5.1802,5.1801,0,0,5.1719,5.1712,5.1738,5.1764,5.1765,5.1802,5.172,5.1764,5.1791,5.1718,5.1776,5.1769,5.1771,5.1847,5.188,5.1845,5.2007,5.1952,5.1963,5.1965,5.2004,5.2024,5.2041,5.1808,5.1807,5.1806,0,0,5.1859,5.1859,5.1919,5.1921,5.1923,5.1902,5.1917,5.1907,5.1899,5.1957,5.1901,5.1933,5.1984,5.1986,5.1994,5.2133,5.2089,5.2142,5.2226,5.2268,5.2285,5.2299,5.2345,5.2362,5.2153,5.2153,5.2153,0,5.1942,5.1996,5.1956,5.2002,5.2013,5.1949,5.2008,5.2012,5.2022,5.2031,5.1993,5.2052,5.205,5.2123,5.2157,5.2167,5.218,5.2142,5.2286,5.23,5.2313,5.2356,5.2374,5.2159,5.2158,5.2158,5.2157,0,5.2095,5.2134,5.2182,5.2192,5.2209,5.2263,5.2228,5.2251,5.222,5.2202,5.226,5.2255,5.2276,5.2292,5.2263,5.236,5.2338,5.2294,5.2224,5.234,5.2379,5.2396,5.2168,5.2166,5.2164,5.2162,0,0,5.2301,5.2285,5.2303,5.2305,5.2301,5.2329,5.2379,5.2398,5.2416,5.2426,5.2464,5.2507,5.2465,5.2474,5.2445,5.2483,5.2588,5.2433,5.2432,5.2459,5.2691,5.2722,5.2742,5.256,5.2563,5.2565,5.2689,0,5.2434,5.2515,5.2479,5.2564,5.2597,5.2535,5.2577,5.2579,5.2563,5.2588,5.2572,5.2601,5.2545,5.255,5.2585,5.2568,5.2633,5.2559,5.2592,5.2594,5.259,5.2763,5.2797,5.2914,5.2705,5.2707,5.2709,0,5.26,5.2613,5.2702,5.2688,5.27,5.2739,5.2752,5.2778,5.2777,5.2763,5.2773,5.2734,5.2779,5.2713,5.2773,5.2723,5.2735,5.2729,5.2732,5.2731,5.2657,5.2764,5.2951,5.2967,5.2734,5.2732,5.273,0,5.2735,5.2776,5.2833,5.2837,5.2824,5.2852,5.2847,5.2843,5.2856,5.2868,5.2876,5.2894,5.2903,5.2917,5.2884,5.2839,5.2948,5.2879,5.2935,5.2936,5.2959,5.2957,5.3147,5.2972,5.2972,5.2972,5.2971,0,5.2886,5.2941,5.2893,5.2928,5.2987,5.2944,5.3004,5.2993,5.2989,5.302,5.2969,5.2998,5.2954,5.2979,5.2954,5.3005,5.3011,5.2999,5.2991,5.3002,5.3003,5.3007,5.2997,5.2976,5.2975,5.2974,5.2974,0,5.3047,5.3017,5.3074,5.3056,5.3052,5.3097,5.3081,5.3111,5.3092,5.3131,5.3137,5.3107,5.3134,5.3102,5.3127,5.311,5.3179,5.3161,5.3179,5.3172,5.3229,5.3223,5.3425,5.3448,5.3262,5.3264,5.3266,0,5.3143,5.3184,5.3169,5.3185,5.3183,5.3211,5.3223,5.3182,5.3197,5.3198,5.3228,5.325,5.3265,5.331,5.329,5.3307,5.3287,5.3357,5.3289,5.3298,5.3284,5.328,5.3283,5.337,5.3372,5.3374,5.3375,0,5.3316,5.3299,5.3318,5.3332,5.3347,5.3356,5.3362,5.3378,5.3335,5.3354,5.3379,5.3391,5.3415,5.3436,5.3448,5.3443,5.3401,5.3397,5.341,5.342,5.3427,5.342,5.3212,5.3392,5.339,5.3389,5.3388,5.3387,5.3445,5.3477,5.347,5.3492,5.3491,5.3497,5.3523,5.3506,5.3527,5.3541,5.3517,5.3548,5.3544,5.3555,5.3555,5.3578,5.3548,5.3569,5.3573,5.3578,5.3585,5.3426,5.3581,5.358,5.358,5.3579,5.3579,0,5.3612,5.3604,5.3625,5.3632,5.365,5.3609,5.3612,5.3628,5.3656,5.3656,5.3671,5.3699,5.3719,5.37,5.3716,5.3738,5.3719,5.3743,5.374,5.3739,5.3612,5.3598,5.3758,5.3758,5.3758,5.3758,5.3758,5.3758,5.3701,5.3751,5.3732,5.378,5.3771,5.3801,5.3805,5.3809,5.3808,5.3841,5.3856,5.3844,5.3835,5.385,5.3866,5.386,5.3866,5.3897,5.3884,5.3766,5.3748,5.3731,5.3717,5.3899,5.39,5.4007,5.4008,5.4009]}]]